Crestview, FL

9:38 PM CDT on April 30, 2017 (GMT -0500)
Sikes

Weather History for KCEW - October, 2011

Change the Weather History Date:

Friday, October 7, 2011

  Actual Average Record
Temperature  
Mean Temperature 72 °F -  
Max Temperature 86 °F 80 °F 92 °F (1951)
Min Temperature 59 °F 58 °F 39 °F (2010)
Cooling Degree Days 8    
Growing Degree Days 22 (Base 50)    
Moisture  
Dew Point 58 °F    
Average Humidity 65    
Maximum Humidity 87    
Minimum Humidity 41    
Precipitation  
Precipitation 0.00 in - - ()
Sea Level Pressure  
Sea Level Pressure 30.20 in    
Wind  
Wind Speed 4 mph (NE)    
Max Wind Speed 10 mph    
Max Gust Speed -    
Visibility 10 miles    
Events      
Averages and records for this station are not official NWS values.
T = Trace of Precipitation, MM = Missing Value Source: NWS Daily Summary

Daily Weather History Graph

Daily Weather History Graph

Search for Another Location

Airport or City:

Trip Planner

Search our weather history database for the weather conditions in past years. The results will help you decide how hot, cold, wet, or windy it might be!

Date:

Astronomy

Oct. 07, 2011 Rise Set
Actual Time 6:43 AM CDT 6:24 PM CDT
Civil Twilight 6:19 AM CDT 6:48 PM CDT
Nautical Twilight 5:51 AM CDT 7:16 PM CDT
Astronomical Twilight 5:23 AM CDT 7:44 PM CDT
Moon 3:54 PM CDT (10/7) 2:46 AM CDT (10/7)
Length of Visible Light 12h 29m
Length of Day
11h 41m
Waxing Gibbous, 83% of the Moon is Illuminated
Oct 7
Waxing Gibbous
Oct 11
Full
Oct 19
Last Quarter
Oct 26
New
Nov 2
First Quarter

Hourly Weather History & Observations

Time (CDT) Temp. Heat Index Dew Point Humidity Pressure Visibility Wind Dir Wind Speed Gust Speed Precip Events Conditions
12:53 AM 60.1 °F - 55.9 °F 86% 30.18 in 10.0 mi Calm Calm - N/A   Clear
1:53 AM 59.0 °F - 55.0 °F 87% 30.18 in 10.0 mi NE 3.5 mph - N/A   Clear
2:53 AM 61.0 °F - 55.0 °F 81% 30.19 in 10.0 mi ENE 3.5 mph - N/A   Clear
3:53 AM 60.1 °F - 55.0 °F 83% 30.18 in 10.0 mi Calm Calm - N/A   Clear
4:53 AM 60.1 °F - 55.0 °F 83% 30.19 in 10.0 mi ENE 3.5 mph - N/A   Clear
5:53 AM 61.0 °F - 55.9 °F 83% 30.21 in 10.0 mi NE 5.8 mph - N/A   Clear
6:53 AM 61.0 °F - 55.9 °F 83% 30.22 in 10.0 mi NE 3.5 mph - N/A   Clear
7:53 AM 64.0 °F - 57.0 °F 78% 30.24 in 10.0 mi ENE 4.6 mph - N/A   Clear
8:53 AM 69.1 °F - 57.9 °F 68% 30.25 in 10.0 mi East 8.1 mph - N/A   Clear
9:53 AM 75.0 °F - 60.1 °F 60% 30.26 in 10.0 mi East 10.4 mph - N/A   Clear
10:53 AM 79.0 °F - 59.0 °F 50% 30.25 in 10.0 mi NE 8.1 mph - N/A   Clear
12:53 PM 84.0 °F 84.4 °F 61.0 °F 46% 30.22 in 10.0 mi ENE 8.1 mph - N/A   Clear
1:53 PM 84.9 °F 85.0 °F 61.0 °F 44% 30.19 in 10.0 mi NNE 8.1 mph - N/A   Clear
2:53 PM 86.0 °F 86.1 °F 61.0 °F 43% 30.17 in 10.0 mi East 5.8 mph - N/A   Partly Cloudy
3:53 PM 86.0 °F 85.7 °F 60.1 °F 41% 30.16 in 10.0 mi Variable 5.8 mph - N/A   Partly Cloudy
4:53 PM 84.0 °F 83.8 °F 59.0 °F 43% 30.16 in 10.0 mi Variable 6.9 mph - N/A   Clear
5:53 PM 81.0 °F 81.1 °F 57.9 °F 45% 30.15 in 10.0 mi NNE 4.6 mph - N/A   Clear
6:53 PM 73.9 °F - 59.0 °F 59% 30.16 in 10.0 mi Calm Calm - N/A   Clear
7:53 PM 71.1 °F - 57.9 °F 63% 30.18 in 10.0 mi NE 3.5 mph - N/A   Clear
8:53 PM 70.0 °F - 57.0 °F 63% 30.19 in 10.0 mi NNE 4.6 mph - N/A   Clear
9:53 PM 69.1 °F - 57.0 °F 65% 30.20 in 10.0 mi NE 4.6 mph - N/A   Clear
10:53 PM 68.0 °F - 55.9 °F 65% 30.21 in 10.0 mi NE 3.5 mph - N/A   Clear
11:53 PM 66.0 °F - 55.9 °F 70% 30.21 in 10.0 mi NE 3.5 mph - N/A   Clear